Lancaster, OH

9:09 PM EST on December 15, 2017 (GMT -0500)
Fairfield County

Weather History for KLHQ - February, 2014

Change the Weather History Date:

Friday, February 21, 2014

  Actual Average Record
Temperature  
Mean Temperature 48 °F -  
Max Temperature 60 °F 42 °F 71 °F (1997)
Min Temperature 36 °F 20 °F -7 °F (1968)
Degree Days  
Heating Degree Days 17    
Moisture  
Dew Point 33 °F    
Average Humidity 67    
Maximum Humidity 90    
Minimum Humidity 35    
Precipitation  
Precipitation 0.15 in - - ()
Sea Level Pressure  
Sea Level Pressure 29.76 in    
Wind  
Wind Speed 14 mph (WSW)    
Max Wind Speed 25 mph    
Max Gust Speed 45 mph    
Visibility 9 miles    
Events Rain    
Averages and records for this station are not official NWS values.
T = Trace of Precipitation, MM = Missing Value Source: NWS Daily Summary

Daily Weather History Graph

Daily Weather History Graph

Search for Another Location

Airport or City:

Trip Planner

Search our weather history database for the weather conditions in past years. The results will help you decide how hot, cold, wet, or windy it might be!

Date:

Astronomy

Feb. 21, 2014 Rise Set
Actual Time 7:15 AM EST 6:13 PM EST
Civil Twilight 6:47 AM EST 6:41 PM EST
Nautical Twilight 6:16 AM EST 7:12 PM EST
Astronomical Twilight 5:45 AM EST 7:43 PM EST
Moon 12:05 AM EST (2/21) 10:39 AM EST (2/21)
Length of Visible Light 11h 53m
Length of Day
10h 58m
Waning Gibbous, 61% of the Moon is Illuminated
Feb 21
Waning Gibbous
Feb 22
Last Quarter
Mar 1
New
Mar 8
First Quarter
Mar 16
Full

Hourly Weather History & Observations

Time (EST) Temp. Windchill Dew Point Humidity Pressure Visibility Wind Dir Wind Speed Gust Speed Precip Events Conditions
12:53 AM 60.1 °F - 54.0 °F 80% 29.53 in 10.0 mi South 12.7 mph - 0.01 in   Mostly Cloudy
1:48 AM 53.6 °F - 50.0 °F 88% 29.57 in 4.0 mi West 18.4 mph 44.9 mph 0.07 in Rain Heavy Rain
1:53 AM 53.1 °F - 48.0 °F 83% 29.56 in 5.0 mi West 11.5 mph 33.4 mph 0.08 in Rain Light Rain
2:00 AM 52.0 °F - 48.0 °F 86% 29.58 in 10.0 mi West 15.0 mph 20.7 mph 0.00 in Rain Light Rain
2:09 AM 51.1 °F - 46.9 °F 86% 29.61 in 8.0 mi West 15.0 mph - 0.01 in Rain Rain
2:20 AM 50.0 °F - 46.0 °F 86% 29.62 in 7.0 mi West 16.1 mph 23.0 mph 0.02 in Rain Light Rain
2:34 AM 50.0 °F - 46.0 °F 86% 29.61 in 7.0 mi West 10.4 mph - 0.03 in Rain Light Rain
2:38 AM 48.9 °F - 46.0 °F 90% 29.60 in 9.0 mi West 11.5 mph - 0.03 in Rain Light Rain
2:51 AM 48.2 °F - 44.6 °F 87% 29.64 in 10.0 mi West 17.3 mph 24.2 mph 0.04 in Rain Light Rain
2:53 AM 48.0 °F - 43.0 °F 83% 29.64 in 10.0 mi West 17.3 mph 24.2 mph 0.04 in Rain Light Rain
3:20 AM 46.0 °F 40.6 °F 41.0 °F 83% 29.65 in 10.0 mi West 11.5 mph 19.6 mph 0.00 in   Overcast
3:53 AM 43.0 °F 36.0 °F 37.0 °F 80% 29.67 in 10.0 mi West 13.8 mph 27.6 mph 0.00 in   Overcast
4:53 AM 39.9 °F 33.4 °F 35.1 °F 83% 29.68 in 10.0 mi West 10.4 mph 16.1 mph 0.00 in   Overcast
5:53 AM 37.9 °F 29.2 °F 32.0 °F 79% 29.74 in 6.0 mi WSW 15.0 mph 23.0 mph 0.02 in Rain Light Rain
6:53 AM 37.9 °F 30.5 °F 32.0 °F 79% 29.74 in 10.0 mi SW 11.5 mph - 0.00 in   Overcast
7:53 AM 39.0 °F 32.8 °F 32.0 °F 76% 29.75 in 10.0 mi SSW 9.2 mph 18.4 mph N/A   Overcast
8:53 AM 39.0 °F 32.8 °F 33.1 °F 79% 29.78 in 10.0 mi SSW 9.2 mph - N/A   Clear
9:53 AM 41.0 °F 32.8 °F 34.0 °F 76% 29.78 in 10.0 mi SSW 16.1 mph - N/A   Scattered Clouds
10:53 AM 42.1 °F 33.3 °F 30.0 °F 62% 29.79 in 10.0 mi SW 19.6 mph 27.6 mph N/A   Overcast
11:53 AM 43.0 °F 33.8 °F 27.0 °F 53% 29.81 in 10.0 mi SW 23.0 mph 36.8 mph N/A   Mostly Cloudy
12:53 PM 42.1 °F 32.1 °F 25.0 °F 51% 29.81 in 10.0 mi WSW 25.3 mph 38.0 mph N/A   Mostly Cloudy
1:53 PM 44.1 °F 36.2 °F 26.1 °F 49% 29.81 in 10.0 mi SW 18.4 mph 35.7 mph N/A   Mostly Cloudy
2:53 PM 46.0 °F 38.5 °F 25.0 °F 44% 29.82 in 10.0 mi WSW 19.6 mph 33.4 mph N/A   Partly Cloudy
3:53 PM 46.9 °F - 25.0 °F 42% 29.84 in 10.0 mi WSW 21.9 mph 32.2 mph N/A   Partly Cloudy
4:53 PM 46.0 °F 38.8 °F 19.9 °F 35% 29.88 in 10.0 mi WSW 18.4 mph 34.5 mph N/A   Clear
5:53 PM 43.0 °F 35.1 °F 21.0 °F 42% 29.91 in 10.0 mi WSW 17.3 mph 26.5 mph N/A   Clear
6:53 PM 39.9 °F 32.9 °F 21.0 °F 47% 29.94 in 10.0 mi WSW 11.5 mph - N/A   Clear
7:53 PM 39.0 °F 32.3 °F 19.9 °F 46% 29.97 in 10.0 mi WSW 10.4 mph - N/A   Clear
8:53 PM 36.0 °F 32.1 °F 19.9 °F 52% 29.99 in 10.0 mi WSW 4.6 mph - N/A   Clear
9:53 PM 36.0 °F 30.3 °F 19.0 °F 50% 29.99 in 10.0 mi SSW 6.9 mph - N/A   Clear
10:53 PM 36.0 °F 29.6 °F 18.0 °F 48% 30.01 in 10.0 mi SW 8.1 mph - N/A   Clear
11:53 PM 37.0 °F 31.0 °F 17.1 °F 44% 29.99 in 10.0 mi SSW 8.1 mph - N/A   Clear